Terminal Aerodrome Forecast
Issued by NWS Pueblo, CO

Home | Current Version | Previous Version | Text Only | Print | Product List | Glossary On
Versions: 1 2 3 4 5 6 7 8 9 10 11 12 13 14 15 16 17 18 19 20 21 22 23 24 25 26 27 28 29 30 31 32 33 34 35 36 37 38 39 40 41 42 43 44 45 46 47 48 49 50
000
FTUS45 KPUB 230712 AAA
TAFCOS
TAF AMD
KCOS 230712Z 2307/2406 35006KT P6SM VCTS SCT040 BKN080CB
      TEMPO 2307/2309 3SM -TSRA SCT010 OVC040CB
     FM231600 17010G20KT P6SM VCTS FEW040 SCT060CB BKN130
     FM240300 36009KT P6SM FEW040 SCT070 BKN130=

USA.gov is the U.S. government's official web portal to all federal, state and local government web resources and services.